TimeCDT,TemperatureF,Dew PointF,Humidity,Sea Level PressureIn,VisibilityMPH,Wind Direction,Wind SpeedMPH,Gust SpeedMPH,PrecipitationIn,Events,Conditions,WindDirDegrees,DateUTC
12:15 AM,70.0,48.0,46,30.28,10.0,SSE,9.2,-,N/A,,Clear,160,2013-06-28 05:15:00
12:35 AM,71.2,49.5,46,30.29,10.0,SSE,10.4,-,N/A,,Clear,150,2013-06-28 05:35:00
12:55 AM,70.3,50.0,48,30.29,10.0,SSE,10.4,-,N/A,,Clear,160,2013-06-28 05:55:00
1:35 AM,68.4,50.7,53,30.30,10.0,South,5.8,-,N/A,,Clear,180,2013-06-28 06:35:00
1:55 AM,66.9,50.4,55,30.30,10.0,South,4.6,-,N/A,,Clear,190,2013-06-28 06:55:00
2:15 AM,67.1,50.9,56,30.29,10.0,South,3.5,-,N/A,,Clear,180,2013-06-28 07:15:00
2:35 AM,67.1,51.1,56,30.29,10.0,SSW,3.5,-,N/A,,Clear,200,2013-06-28 07:35:00
2:55 AM,66.7,51.8,59,30.29,10.0,South,5.8,-,N/A,,Clear,190,2013-06-28 07:55:00
3:15 AM,66.4,52.5,61,30.29,10.0,SSW,3.5,-,N/A,,Clear,210,2013-06-28 08:15:00
3:35 AM,63.3,51.6,66,30.29,10.0,WSW,4.6,-,N/A,,Clear,250,2013-06-28 08:35:00
3:55 AM,63.0,51.1,65,30.30,10.0,West,4.6,-,N/A,,Clear,260,2013-06-28 08:55:00
4:15 AM,61.0,51.1,70,30.29,10.0,WSW,5.8,-,N/A,,Clear,240,2013-06-28 09:15:00
4:35 AM,62.2,51.4,68,30.29,10.0,SW,4.6,-,N/A,,Clear,220,2013-06-28 09:35:00
4:55 AM,60.8,51.1,70,30.29,10.0,North,5.8,-,N/A,,Clear,360,2013-06-28 09:55:00
5:15 AM,63.0,52.3,68,30.29,10.0,NNE,3.5,-,N/A,,Clear,20,2013-06-28 10:15:00
5:35 AM,60.6,51.8,73,30.28,10.0,NNE,4.6,-,N/A,,Clear,30,2013-06-28 10:35:00
5:55 AM,59.5,52.2,77,30.28,10.0,NNE,4.6,-,N/A,,Clear,30,2013-06-28 10:55:00
6:15 AM,59.7,52.7,78,30.29,10.0,Calm,Calm,-,N/A,,Clear,0,2013-06-28 11:15:00
6:35 AM,60.1,52.3,76,30.28,10.0,ENE,3.5,-,N/A,,Clear,60,2013-06-28 11:35:00
6:55 AM,59.9,52.5,77,30.28,10.0,ENE,5.8,-,N/A,,Clear,60,2013-06-28 11:55:00
7:55 AM,67.8,54.5,62,30.29,10.0,ENE,6.9,-,N/A,,Clear,60,2013-06-28 12:55:00
8:15 AM,70.7,54.3,56,30.29,10.0,ENE,10.4,-,N/A,,Clear,70,2013-06-28 13:15:00
8:35 AM,72.7,54.5,53,30.29,10.0,ENE,10.4,-,N/A,,Clear,70,2013-06-28 13:35:00
8:55 AM,75.2,54.5,48,30.29,10.0,ENE,12.7,-,N/A,,Clear,60,2013-06-28 13:55:00
9:15 AM,75.7,54.5,48,30.29,10.0,ENE,10.4,-,N/A,,Clear,60,2013-06-28 14:15:00
9:35 AM,77.5,53.8,44,30.29,10.0,ENE,12.7,-,N/A,,Clear,70,2013-06-28 14:35:00
9:55 AM,79.2,54.0,42,30.29,10.0,NE,13.8,-,N/A,,Clear,50,2013-06-28 14:55:00
10:15 AM,79.9,52.9,39,30.29,10.0,ENE,11.5,-,N/A,,Clear,70,2013-06-28 15:15:00
10:35 AM,80.8,51.8,36,30.29,10.0,ENE,11.5,18.4,N/A,,Clear,60,2013-06-28 15:35:00
10:55 AM,82.6,51.1,33,30.29,10.0,ENE,11.5,-,N/A,,Clear,70,2013-06-28 15:55:00
11:15 AM,82.9,50.9,33,30.29,10.0,East,12.7,17.3,N/A,,Clear,80,2013-06-28 16:15:00
11:35 AM,84.4,50.9,31,30.28,10.0,East,13.8,-,N/A,,Clear,80,2013-06-28 16:35:00
11:55 AM,85.6,50.4,29,30.28,10.0,East,13.8,19.6,N/A,,Clear,90,2013-06-28 16:55:00
12:15 PM,86.7,50.4,28,30.28,10.0,East,13.8,23.0,N/A,,Clear,100,2013-06-28 17:15:00
12:35 PM,86.7,50.7,29,30.28,10.0,East,17.3,24.2,N/A,,Clear,80,2013-06-28 17:35:00
12:55 PM,86.9,50.0,28,30.28,10.0,East,8.1,18.4,N/A,,Clear,80,2013-06-28 17:55:00
1:15 PM,86.5,50.2,28,30.28,10.0,East,10.4,16.1,N/A,,Clear,90,2013-06-28 18:15:00
1:35 PM,86.4,50.2,29,30.27,10.0,SE,8.1,-,N/A,,Clear,130,2013-06-28 18:35:00
1:55 PM,87.8,49.8,27,30.27,10.0,East,4.6,19.6,N/A,,Clear,80,2013-06-28 18:55:00
2:15 PM,87.8,49.8,27,30.26,10.0,East,9.2,-,N/A,,Clear,100,2013-06-28 19:15:00
2:35 PM,88.7,49.6,26,30.26,10.0,SE,8.1,-,N/A,,Clear,140,2013-06-28 19:35:00
2:55 PM,88.3,49.1,26,30.25,10.0,Calm,Calm,-,N/A,,Clear,0,2013-06-28 19:55:00
3:15 PM,90.0,49.1,24,30.25,10.0,SSE,4.6,-,N/A,,Clear,150,2013-06-28 20:15:00
3:35 PM,90.1,48.9,24,30.24,10.0,SSE,3.5,-,N/A,,Clear,160,2013-06-28 20:35:00
3:55 PM,90.5,48.9,24,30.23,10.0,SE,8.1,-,N/A,,Scattered Clouds,130,2013-06-28 20:55:00
4:15 PM,90.3,48.6,24,30.22,10.0,ESE,6.9,-,N/A,,Clear,110,2013-06-28 21:15:00
4:35 PM,90.1,48.2,24,30.22,10.0,ENE,10.4,-,N/A,,Clear,60,2013-06-28 21:35:00
4:55 PM,90.5,47.8,23,30.21,10.0,NE,8.1,17.3,N/A,,Clear,50,2013-06-28 21:55:00
5:15 PM,91.0,47.5,22,30.21,10.0,ENE,6.9,-,N/A,,Clear,60,2013-06-28 22:15:00
5:35 PM,90.7,47.1,22,30.21,10.0,NE,15.0,18.4,N/A,,Clear,50,2013-06-28 22:35:00
5:55 PM,91.0,47.1,22,30.21,10.0,NNE,12.7,17.3,N/A,,Clear,30,2013-06-28 22:55:00
6:15 PM,88.9,47.1,24,30.19,10.0,East,10.4,-,N/A,,Clear,80,2013-06-28 23:15:00
6:35 PM,87.3,47.8,25,30.19,10.0,ENE,13.8,20.7,N/A,,Clear,60,2013-06-28 23:35:00
6:55 PM,89.2,48.2,24,30.19,10.0,ENE,12.7,19.6,N/A,,Clear,70,2013-06-28 23:55:00
7:15 PM,88.0,47.8,25,30.19,10.0,ENE,12.7,16.1,N/A,,Clear,60,2013-06-29 00:15:00
7:35 PM,87.6,48.4,26,30.19,10.0,East,13.8,-,N/A,,Clear,80,2013-06-29 00:35:00
7:55 PM,86.5,48.4,27,30.19,10.0,ENE,18.4,-,N/A,,Clear,70,2013-06-29 00:55:00
8:15 PM,83.1,47.3,29,30.20,10.0,East,15.0,-,N/A,,Clear,80,2013-06-29 01:15:00
8:35 PM,81.9,47.3,30,30.20,10.0,ENE,13.8,-,N/A,,Clear,70,2013-06-29 01:35:00
8:55 PM,81.7,47.3,30,30.21,10.0,East,12.7,18.4,N/A,,Clear,80,2013-06-29 01:55:00
9:15 PM,80.2,47.1,31,30.21,10.0,East,10.4,-,N/A,,Clear,80,2013-06-29 02:15:00
9:35 PM,77.2,47.3,35,30.21,10.0,East,8.1,-,N/A,,Clear,90,2013-06-29 02:35:00
9:55 PM,75.4,46.8,36,30.22,10.0,East,9.2,-,N/A,,Clear,100,2013-06-29 02:55:00
10:15 PM,74.3,47.3,38,30.23,10.0,East,8.1,-,N/A,,Clear,100,2013-06-29 03:15:00
10:35 PM,72.3,48.2,42,30.25,10.0,ESE,6.9,-,N/A,,Clear,110,2013-06-29 03:35:00
10:55 PM,72.3,48.2,42,30.25,10.0,East,9.2,-,N/A,,Clear,90,2013-06-29 03:55:00
11:15 PM,71.6,48.4,44,30.26,10.0,SE,5.8,-,N/A,,Clear,130,2013-06-29 04:15:00
11:35 PM,69.8,48.9,47,30.26,10.0,East,6.9,-,N/A,,Clear,90,2013-06-29 04:35:00
11:55 PM,68.0,49.1,51,30.26,10.0,East,5.8,-,N/A,,Clear,90,2013-06-29 04:55:00